When you browse on this site, cookies collect data to enhance your experience and personalize the content and advertising you see.
Visit our Privacy Policy to learn more. By continuing to use the site, you agree to this use of cookies and data.
EN

Hourly Weather Lezhe

Today, 10 July, Friday

Time Temperature Precipitation Wind Pressure Humidity
00:00 +20°C° 0 mm 2 mps 738 mmHg 59%
01:00 +20°C° 0 mm 2 mps 739 mmHg 59%
02:00 +20°C° 0 mm 2 mps 738 mmHg 60%
03:00 +19°C° 0 mm 2 mps 738 mmHg 60%
04:00 +19°C° 0 mm 2 mps 738 mmHg 60%
05:00 +21°C° 0 mm 2 mps 738 mmHg 58%
06:00 +24°C° 0 mm 2 mps 738 mmHg 55%
07:00 +25°C° 0 mm 2 mps 738 mmHg 53%
08:00 +27°C° 0 mm 2 mps 738 mmHg 47%
09:00 +30°C° 0 mm 2 mps 738 mmHg 42%
10:00 +32°C° 0 mm 1 mps 738 mmHg 37%
11:00 +32°C° 0 mm 2 mps 738 mmHg 36%
12:00 +34°C° 0 mm 2 mps 738 mmHg 34%
13:00 +34°C° 0 mm 3 mps 737 mmHg 32%
14:00 +34°C° 0 mm 2 mps 737 mmHg 34%
15:00 +34°C° 0 mm 2 mps 737 mmHg 35%
16:00 +32°C° 0 mm 2 mps 737 mmHg 37%
17:00 +30°C° 0 mm 2 mps 737 mmHg 44%
18:00 +28°C° 0 mm 1 mps 737 mmHg 52%
19:00 +26°C° 0 mm 1 mps 736 mmHg 59%
20:00 +25°C° 0 mm 1 mps 737 mmHg 61%
21:00 +24°C° 0 mm 1 mps 737 mmHg 62%
22:00 +24°C° 0 mm 1 mps 737 mmHg 64%
23:00 +23°C° 0 mm 1 mps 737 mmHg 64%

Tomorrow, 11 July, Saturday

Time Temperature Precipitation Wind Pressure Humidity
00:00 +23°C° 0 mm 1 mps 737 mmHg 65%
01:00 +23°C° 0 mm 1 mps 737 mmHg 65%
02:00 +23°C° 0 mm 1 mps 737 mmHg 66%
03:00 +22°C° 0 mm 1 mps 737 mmHg 67%
04:00 +22°C° 0 mm 1 mps 737 mmHg 67%
05:00 +24°C° 0 mm 1 mps 737 mmHg 63%
06:00 +26°C° 0 mm 1 mps 737 mmHg 59%
07:00 +28°C° 0 mm 1 mps 737 mmHg 54%
08:00 +29°C° 0 mm 1 mps 737 mmHg 50%
09:00 +31°C° 0 mm 1 mps 737 mmHg 46%
10:00 +32°C° 0 mm 1 mps 737 mmHg 42%
11:00 +32°C° 0 mm 2 mps 736 mmHg 42%
12:00 +32°C° 0 mm 2 mps 736 mmHg 41%
13:00 +34°C° 0 mm 3 mps 736 mmHg 41%
14:00 +33°C° 0.1 mm 3 mps 736 mmHg 41%
15:00 +33°C° 0.1 mm 3 mps 735 mmHg 41%
16:00 +33°C° 0.1 mm 3 mps 735 mmHg 41%
17:00 +30°C° 0 mm 2 mps 735 mmHg 46%
18:00 +28°C° 0 mm 1 mps 735 mmHg 52%
19:00 +24°C° 0 mm 0 mps 735 mmHg 58%
20:00 +25°C° 0 mm 1 mps 735 mmHg 60%
21:00 +24°C° 0 mm 1 mps 736 mmHg 61%
22:00 +24°C° 0 mm 1 mps 736 mmHg 62%
23:00 +23°C° 0 mm 1 mps 736 mmHg 63%

Day after tomorrow, 12 July, Sunday

Time Temperature Precipitation Wind Pressure Humidity
00:00 +23°C° 0 mm 1 mps 736 mmHg 64%
01:00 +22°C° 0 mm 1 mps 735 mmHg 65%
02:00 +22°C° 0 mm 1 mps 735 mmHg 66%
03:00 +22°C° 0 mm 1 mps 735 mmHg 67%
04:00 +22°C° 0 mm 1 mps 735 mmHg 68%
05:00 +23°C° 0 mm 1 mps 735 mmHg 65%
06:00 +25°C° 0 mm 1 mps 736 mmHg 62%
07:00 +27°C° 0 mm 1 mps 736 mmHg 59%
08:00 +28°C° 0 mm 2 mps 736 mmHg 56%
09:00 +30°C° 0 mm 2 mps 737 mmHg 53%
10:00 +31°C° 0 mm 3 mps 737 mmHg 50%
11:00 +31°C° 0.1 mm 3 mps 737 mmHg 50%
12:00 +31°C° 0.1 mm 3 mps 737 mmHg 49%
13:00 +32°C° 0.1 mm 4 mps 737 mmHg 49%
14:00 +32°C° 0.1 mm 4 mps 737 mmHg 50%
15:00 +32°C° 0.1 mm 4 mps 737 mmHg 50%
16:00 +32°C° 0.1 mm 4 mps 737 mmHg 51%
17:00 +29°C° 0.1 mm 3 mps 737 mmHg 57%
18:00 +27°C° 0.1 mm 3 mps 737 mmHg 64%
19:00 +25°C° 0.1 mm 3 mps 737 mmHg 70%
20:00 +24°C° 0 mm 3 mps 737 mmHg 72%
21:00 +22°C° 0 mm 3 mps 738 mmHg 74%
22:00 +20°C° 0 mm 4 mps 738 mmHg 75%
23:00 +20°C° 0 mm 4 mps 738 mmHg 76%

13 July, Monday

Time Temperature Precipitation Wind Pressure Humidity
00:00 +19°C° 0 mm 4 mps 738 mmHg 76%
01:00 +19°C° 0 mm 4 mps 737 mmHg 76%
02:00 +18°C° 0 mm 4 mps 737 mmHg 76%
03:00 +18°C° 0 mm 4 mps 737 mmHg 75%
04:00 +17°C° 0 mm 4 mps 737 mmHg 75%
05:00 +19°C° 0 mm 5 mps 737 mmHg 70%
06:00 +20°C° 0 mm 5 mps 738 mmHg 65%
07:00 +21°C° 0 mm 5 mps 738 mmHg 60%
08:00 +22°C° 0 mm 6 mps 738 mmHg 55%
09:00 +23°C° 0 mm 6 mps 738 mmHg 50%
10:00 +26°C° 0 mm 6 mps 738 mmHg 45%
11:00 +27°C° 0 mm 6 mps 738 mmHg 42%
12:00 +28°C° 0 mm 5 mps 737 mmHg 39%
13:00 +28°C° 0 mm 5 mps 737 mmHg 36%
14:00 +28°C° 0 mm 5 mps 737 mmHg 36%
15:00 +28°C° 0 mm 5 mps 736 mmHg 36%
16:00 +28°C° 0 mm 5 mps 736 mmHg 37%
17:00 +26°C° 0 mm 5 mps 736 mmHg 42%
18:00 +23°C° 0 mm 5 mps 736 mmHg 47%
19:00 +22°C° 0 mm 4 mps 736 mmHg 53%
20:00 +21°C° 0 mm 5 mps 737 mmHg 55%
21:00 +19°C° 0 mm 5 mps 737 mmHg 57%
22:00 +17°C° 0 mm 5 mps 737 mmHg 59%
23:00 +17°C° 0 mm 5 mps 737 mmHg 62%

14 July, Tuesday

Time Temperature Precipitation Wind Pressure Humidity
00:00 +16°C° 0 mm 5 mps 737 mmHg 64%
01:00 +15°C° 0 mm 5 mps 737 mmHg 66%
02:00 +15°C° 0 mm 5 mps 737 mmHg 68%
03:00 +14°C° 0 mm 4 mps 736 mmHg 69%
04:00 +14°C° 0 mm 4 mps 736 mmHg 71%
05:00 +15°C° 0 mm 4 mps 736 mmHg 66%
06:00 +18°C° 0 mm 4 mps 736 mmHg 61%
07:00 +19°C° 0 mm 4 mps 736 mmHg 56%
08:00 +21°C° 0 mm 4 mps 737 mmHg 50%
09:00 +24°C° 0 mm 3 mps 737 mmHg 45%
10:00 +26°C° 0 mm 3 mps 737 mmHg 39%
11:00 +27°C° 0 mm 3 mps 737 mmHg 38%
12:00 +28°C° 0 mm 3 mps 736 mmHg 37%
13:00 +29°C° 0 mm 3 mps 736 mmHg 36%
14:00 +29°C° 0 mm 3 mps 736 mmHg 38%
15:00 +29°C° 0 mm 3 mps 736 mmHg 39%
16:00 +29°C° 0 mm 4 mps 736 mmHg 40%
17:00 +27°C° 0 mm 3 mps 736 mmHg 47%
18:00 +25°C° 0 mm 3 mps 736 mmHg 54%
19:00 +23°C° 0 mm 2 mps 736 mmHg 61%
20:00 +21°C° 0 mm 2 mps 736 mmHg 62%
21:00 +20°C° 0 mm 2 mps 736 mmHg 62%
22:00 +19°C° 0 mm 2 mps 737 mmHg 63%
23:00 +18°C° 0 mm 2 mps 737 mmHg 64%

15 July, Wednesday

Time Temperature Precipitation Wind Pressure Humidity
00:00 +18°C° 0 mm 2 mps 737 mmHg 65%
01:00 +18°C° 0 mm 2 mps 737 mmHg 66%
02:00 +17°C° 0 mm 2 mps 737 mmHg 68%
03:00 +17°C° 0 mm 2 mps 736 mmHg 70%
04:00 +17°C° 0 mm 2 mps 736 mmHg 71%
05:00 +20°C° 0 mm 1 mps 737 mmHg 66%
06:00 +22°C° 0 mm 1 mps 737 mmHg 61%
07:00 +24°C° 0 mm 1 mps 737 mmHg 56%
08:00 +25°C° 0 mm 1 mps 737 mmHg 52%
09:00 +27°C° 0 mm 1 mps 737 mmHg 48%
10:00 +29°C° 0 mm 2 mps 737 mmHg 45%
11:00 +29°C° 0 mm 2 mps 737 mmHg 43%
12:00 +30°C° 0 mm 3 mps 737 mmHg 42%
13:00 +30°C° 0 mm 3 mps 737 mmHg 41%
14:00 +29°C° 0 mm 3 mps 737 mmHg 43%
15:00 +29°C° 0 mm 3 mps 736 mmHg 44%
16:00 +28°C° 0 mm 3 mps 736 mmHg 46%
17:00 +26°C° 0 mm 2 mps 736 mmHg 54%
18:00 +24°C° 0 mm 1 mps 736 mmHg 62%
19:00 +22°C° 0 mm 1 mps 736 mmHg 70%
20:00 +21°C° 0 mm 1 mps 736 mmHg 72%
21:00 +20°C° 0 mm 1 mps 737 mmHg 75%
22:00 +17°C° 0 mm 0 mps 737 mmHg 77%
23:00 +19°C° 0 mm 1 mps 737 mmHg 78%
Show more